Location: Boleita
(10.4833°N, 66.8167°W)
Time: 02:21:17
(UTC+00:00)

Cosmos 614 Rocket - Pass Details

Date: 08 November 2025
Orbit: 728 x 757 km, 74.1° (Epoch: 09 December)

Event Time Altitude Azimuth Distance (km) Brightness Sun altitude
Exits shadow 08:53:38 47° 264° (W) 958 4.1 -21.4°
Maximum altitude 08:53:47 48° 259° (WSW) 956 4.1 -21.3°
Drops below altitude 10° 08:58:36 10° 185° (S) 2,221 6.5 -20.2°
Sets 09:01:00 0° 179° (S) 3,140 7.4 -19.6°
